Regional Weather Roundup
Issued by NWS

Home | Current Version | Previous Version | Graphics & Text | Print | Product List | Glossary On
Versions: 1 2 3 4 5 6 7 8 9 10 11 12 13 14 15 16 17 18 19 20 21 22 23 24 25 26 27
000
ASUS45 KPSR 220710
RWRAZ

ARIZONA HOURLY REGIONAL WEATHER ROUNDUP
NATIONAL WEATHER SERVICE PHOENIX AZ
1200 AM MST FRI JUL 22 2016

NOTE: FAIR INDICATES FEW OR NO CLOUDS BELOW 12,000 FEET WITH NO
SIGNIFICANT WEATHER AND/OR OBSTRUCTIONS TO VISIBILITY.

AZZ001>003-036-220800-
NORTHWEST ARIZONA

CITY           SKY/WX    TMP DP  RH WIND       PRES   REMARKS
BULLHEAD CITY  CLEAR    102  41  12 CALM      29.81S
KINGMAN        CLEAR     88  45  22 MISG      30.07F
$$

AZZ004>008-015-016-018-220800-
NORTH CENTRAL ARIZONA

CITY           SKY/WX    TMP DP  RH WIND       PRES   REMARKS
GRAND CANYON   PTCLDY    67  51  56 CALM      30.38S
WILLIAMS       PTCLDY    64  52  63 SE8       30.46S
PRESCOTT       PTCLDY    70  55  59 S6        30.24F
FLAGSTAFF      PTCLDY    57  55  93 CALM      30.42S
PAYSON         MOCLDY    75  52  43 CALM      30.28S
PAGE           CLEAR     86  48  26 SE9       30.15R
$$

AZZ009>014-017-220800-
NORTHEAST ARIZONA

CITY           SKY/WX    TMP DP  RH WIND       PRES   REMARKS
WINSLOW        MOCLDY    73  55  53 E7        30.26R
SAINT JOHNS    MOCLDY    72  51  47 S7        30.31F
WINDOW ROCK    MOCLDY    64  57  78 S3        30.41F
SHOW LOW       MOCLDY    63  50  63 CALM      30.38R
$$

AZZ023-220800-
GREATER PHOENIX AREA

CITY           SKY/WX    TMP DP  RH WIND       PRES   REMARKS
PHOENIX        MOCLDY   102  55  20 CALM      29.84S HX 100
BUCKEYE        PTCLDY    95  52  23 CALM      29.87R
LUKE AFB       PTCLDY   100  54  21 SW6       29.85R
DEER VALLEY    PTCLDY    96  52  22 CALM      29.89R
SCOTTSDALE     MOCLDY   100  53  20 NE3       29.90R
MESA-GATEWAY   MOCLDY    95  61  31 SE5       29.90R
$$

AZZ027-028-220800-
SOUTHWEST MARICOPA COUNTY AND PINAL COUNTY

CITY           SKY/WX    TMP DP  RH WIND       PRES   REMARKS
CASA GRANDE    CLOUDY    93  57  29 CALM      29.93R
GILA BEND      CLEAR    100  54  21 S9        29.85S
$$

AZZ503-504-507>509-220800-
SOUTHEAST ARIZONA

CITY           SKY/WX    TMP DP  RH WIND       PRES   REMARKS
TUCSON         CLOUDY    88  55  32 E8        30.07R
DAVIS-MONTHAN  MOCLDY    87  55  32 E7        30.06S
NOGALES        CLOUDY    77  58  51 S6        30.19R
SIERRA VISTA   CLOUDY    76  55  47 NE7       30.27R
DOUGLAS        RAIN      72  63  73 S8        30.29R
SAFFORD        CLOUDY    77  64  64 SE16      30.15S
$$

AZZ020-021-025-026-031-220800-
SOUTHWEST ARIZONA

CITY           SKY/WX    TMP DP  RH WIND       PRES   REMARKS
YUMA           PTCLDY    96  61  31 CALM      29.81R
$$

CAZ031-033-041-043-047-048-061-220800-
SOUTHERN CALIFORNIA

CITY           SKY/WX    TMP DP  RH WIND       PRES   REMARKS
DOWNTOWN L.A.  CLEAR     74  58  57 VRB3      29.93R
L.A. AIRPORT   CLEAR     70  57  63 SE5       29.93R
SAN DIEGO      PTCLDY    71  68  90 NW6       29.95S
BURBANK        CLEAR     78  56  46 E8        29.94R
ONTARIO        CLEAR     80  49  33 CALM      29.96S
RIVERSIDE      CLEAR     80  47  31 CALM      29.96S
PALM SPRINGS   CLEAR    101  39  12 NW10      29.83S
EL CENTRO NAS  CLEAR     93  42  17 SW6       29.80R
IMPERIAL       CLEAR     95  51  22 W6        29.78R
BLYTHE         CLEAR    103  45  14 SW12      29.80R
NEEDLES        CLEAR    103  40  11 W10       29.82F
$$

NVZ020-UTZ003-220800-
SOUTHERN NEVADA-UTAH

CITY           SKY/WX    TMP DP  RH WIND       PRES   REMARKS
LAS VEGAS      PTCLDY    96  30   9 S8        29.90R
SALT LAKE CITY CLOUDY    88  45  22 VRB5      30.14R
$$

NMZ009-TXZ055-220800-
NEW MEXICO-WEST TEXAS

CITY           SKY/WX    TMP DP  RH WIND       PRES   REMARKS
ALBUQUERQUE    CLOUDY    80  49  33 N6        30.29S
EL PASO        PTCLDY    85  49  28 S6        30.13S
$$


........................KEY........................
SKY/WX - SKY CONDITION/WEATHER
TMP    - TEMPERATURE IN FAHRENHEIT
DP     - DEW POINT IN FAHRENHEIT
RH     - RELATIVE HUMIDITY IN PERCENT
WIND   - DIRECTION AND SPEED IN MILES PER HOUR (MPH)
VRB    - VARIABLE WIND DIRECTION
PRES   - MEAN SEA LEVEL PRESSURE IN INCHES OF MERCURY
         F - FALLING PRESSURE   R - RISING PRESSURE
         S - STEADY PRESSURE
VSB    - VISIBILITY IN MILES
HX     - HEAT INDEX IN FAHRENHEIT
WCI    - WIND CHILL INDEX IN FAHRENHEIT
TC     - TEMPERATURE IN CELSIUS WHICH IS ALSO KNOWN AS
         TEMPERATURE IN CENTIGRADE
AFB    - AIR FORCE BASE
         LUKE AFB IS LUKE AIR FORCE BASE
         DAVIS-MONTHAN IS DAVIS-MONTHAN AIR FORCE BASE
NAS    - NAVAL AIR STATION
         EL CENTRO NAS IS EL CENTRO NAVAL AIR STATION
N/A    - NOT AVAILABLE





USA.gov is the U.S. government's official web portal to all federal, state and local government web resources and services.